Regional Weather Roundup
Issued by NWS Charleston, WV

Home | Current Version | Previous Version | Graphics & Text | Print | Product List | Glossary On
Versions: 1 2 3 4 5 6 7 8 9 10 11 12 13 14 15 16 17 18 19 20 21 22 23 24 25 26 27 28 29 30 31 32 33 34 35 36 37 38 39 40 41 42 43 44 45 46 47 48 49 50
334
ASUS41 KRLX 210210
RWRRLX
West Virginia Regional Weather Roundup
National Weather Service Charleston WV
1000 PM EDT SUN AUG 20 2017

Note: "fair" indicates few or no clouds below 12,000 feet with no
significant weather and/or obstructions to visibility.

WVZ003-210300-
Northern Panhandle of West Virginia

CITY           SKY/WX    TMP DP  RH WIND       PRES   REMARKS
WHEELING       CLEAR     73  63  70 SE6       30.17R
$$

WVZ009-210300-
Northwest West Virginia

CITY           SKY/WX    TMP DP  RH WIND       PRES   REMARKS
PARKERSBURG    PTCLDY    75  72  90 CALM      30.16R
$$

WVZ006-210300-
Western West Virginia

CITY           SKY/WX    TMP DP  RH WIND       PRES   REMARKS
HUNTINGTON     CLEAR     76  70  82 CALM      30.13R
$$

WVZ015-210300-
West Central West Virginia

CITY           SKY/WX    TMP DP  RH WIND       PRES   REMARKS
CHARLESTON     CLOUDY    74  69  85 CALM      30.15R
$$

WVZ022-031-210300-
North Central West Virginia

CITY           SKY/WX    TMP DP  RH WIND       PRES   REMARKS
CLARKSBURG     CLEAR     73  67  81 CALM      30.18R
MORGANTOWN     CLEAR     71  65  81 CALM      30.19R
$$

WVZ025-035-042-045-210300-
Southern West Virginia

CITY           SKY/WX    TMP DP  RH WIND       PRES   REMARKS
BECKLEY        CLEAR     73  63  70 CALM      30.25R
LOGAN            N/A     75  68  78 CALM      30.19S
BLUEFIELD      CLEAR     74  62  66 S5        30.28R
LEWISBURG      CLEAR     69  62  78 CALM      30.26R
$$

WVZ047-210300-
Northern Mountains of West Virginia

CITY           SKY/WX    TMP DP  RH WIND       PRES   REMARKS
ELKINS         CLOUDY    69  64  84 CALM      30.24R
$$

WVZ052-210300-
Eastern Panhandle of West Virginia

CITY           SKY/WX    TMP DP  RH WIND       PRES   REMARKS
MARTINSBURG    CLEAR     71  63  75 CALM      30.18R
PETERSBURG     PTCLDY    74  72  92 W3        30.19R
$$




USA.gov is the U.S. government's official web portal to all federal, state and local government web resources and services.